Main page
METAR-TAF:

METAR-TAF

Airports :

J6-a, Netherlands

Oil platform

latitude: 53-49-27N, longitude: 2-56-43E, elevation: 34 m

Current weather observation

The report was made 19 minutes ago, at 23:55 UTC
Wind 18 kt from the West/Southwest
Temperature 14°C
Humidity 77%
Pressure 1018 hPa
Visibility 10 km or more

METAR: EHJA 192355Z AUTO 24018KT 9999 NSC 14/10 Q1018

Time: 02:14 (00:14 UTC)


TAF: missing

Weather observations and forecasts of more than 4000 airports (METAR and TAF reports).

The available stations are represented by yellow and red dots on the map.

Hover mouse over dot to see the name of the station.

Then click to see weather observations and forecasts.

To change the map : click on the green buttons with a black cross to zoom in, on the green button with a dash to zoom out, or on the green arrows for adjacent maps.


METAR-TAF: